IZ2OSD Weather Reports


time (UTC)temp
F
wind
direction
speed
knots
gust
knots
rain 1hr
in
rain 24hr
in
rain mn
in
humidity
%
barometer
mb
20260502210108 61 0.0 0.0 0.00 0.00 0.00 57 1019.5
20260502205104 62 0.0 0.0 0.00 0.00 0.00 55 1019.6
20260502204101 62 0.0 0.0 0.00 0.00 0.00 55 1019.5
20260502203117 62 0.0 0.0 0.00 0.00 0.00 54 1019.4
20260502202048 62 0.0 0.0 0.00 0.00 0.00 53 1019.5
20260502201044 63 0.0 0.0 0.00 0.00 0.00 53 1019.7
20260502200042 63 0.0 0.0 0.00 0.00 0.00 52 1019.2
20260502195036 63 0.0 0.0 0.00 0.00 0.00 52 1019.2
20260502194033 64 0.0 0.0 0.00 0.00 0.00 51 1019.2
20260502193026 64 0.0 0.0 0.00 0.00 0.00 50 1019.3
20260502192020 65 0.0 0.0 0.00 0.00 0.00 52 1019.3
20260502191015 66 0.0 0.0 0.00 0.00 0.00 50 1019.3
20260502190012 67 0.0 0.0 0.00 0.00 0.00 49 1019.3
20260502185009 68 0.0 0.0 0.00 0.00 0.00 48 1019.0
20260502184005 69 0.0 0.0 0.00 0.00 0.00 40 1019.1
20260502183124 69 0.0 0.0 0.00 0.00 0.00 40 1019.2
20260502182020 70 0.0 0.0 0.00 0.00 0.00 39 1019.0
20260502180955 70 0.0 0.0 0.00 0.00 0.00 38 1019.2
20260502163911 73 315 0.0 0.9 0.00 0.00 0.00 33 1019.2
20260502162901 73 0.0 0.0 0.00 0.00 0.00 33 1019.2
20260502161857 73 0.0 0.9 0.00 0.00 0.00 33 1019.6
20260502160847 73 315 0.0 0.9 0.00 0.00 0.00 34 1019.5
20260502151823 73 0.0 0.0 0.00 0.00 0.00 34 1019.9
20260502150813 73 292 1.7 3.5 0.00 0.00 0.00 33 1020.0
20260502130713 75 315 0.0 1.7 0.00 0.00 0.00 33 1021.5
20260502123720 74 112 0.0 0.9 0.00 0.00 0.00 35 1022.0
20260502122657 71 292 1.7 3.5 0.00 0.00 0.00 35 1022.2
20260502121648 72 112 0.0 1.7 0.00 0.00 0.00 35 1022.4
20260502120644 71 292 2.6 2.6 0.00 0.00 0.00 34 1022.4
20260502115640 72 135 2.6 3.5 0.00 0.00 0.00 36 1022.6
20260502114637 72 202 2.6 3.5 0.00 0.00 0.00 35 1022.8
20260502113633 73 0.0 0.0 0.00 0.00 0.00 35 1022.8
20260502112629 73 292 0.9 1.7 0.00 0.00 0.00 35 1022.9
20260502111626 70 112 1.7 3.5 0.00 0.00 0.00 35 1023.2
20260502110623 72 292 0.9 1.7 0.00 0.00 0.00 36 1023.4
20260502105639 72 337 1.7 2.6 0.00 0.00 0.00 37 1023.5
20260502104616 72 0.0 0.9 0.00 0.00 0.00 37 1023.7
20260502103612 73 292 1.7 2.6 0.00 0.00 0.00 36 1024.0
20260502102609 74 292 0.9 2.6 0.00 0.00 0.00 36 1024.0
20260502100609 72 292 0.0 0.9 0.00 0.00 0.00 38 1024.3
20260502090544 71 315 0.9 1.7 0.00 0.00 0.00 40 1024.9
20260502071451 62 112 0.9 1.7 0.00 0.00 0.00 50 1025.3
20260502070449 67 292 0.0 1.7 0.00 0.00 0.00 46 1025.3
20260502065437 64 292 0.0 0.9 0.00 0.00 0.00 53 1025.4
20260502064434 66 292 0.0 0.9 0.00 0.00 0.00 51 1025.2
20260502063433 65 292 0.0 0.9 0.00 0.00 0.00 53 1025.1
20260502062427 62 0.0 0.9 0.00 0.00 0.00 56 1025.4
20260502061504 61 292 0.9 1.7 0.00 0.00 0.00 59 1025.0
20260502060433 59 292 0.9 2.6 0.00 0.00 0.00 61 1025.1
20260502055410 57 292 1.7 1.7 0.00 0.00 0.00 63 1025.0
20260502054426 56 292 1.7 2.6 0.00 0.00 0.00 63 1025.1
20260502053401 55 315 1.7 2.6 0.00 0.00 0.00 65 1025.2
20260502052417 54 315 0.9 1.7 0.00 0.00 0.00 66 1025.1
20260502051349 53 315 1.7 1.7 0.00 0.00 0.00 67 1025.0
20260502050348 52 315 0.9 1.7 0.00 0.00 0.00 69 1025.0
20260502045342 52 315 1.7 1.7 0.00 0.00 0.00 70 1024.9
20260502044339 51 315 1.7 2.6 0.00 0.00 0.00 71 1024.9
20260502043335 50 315 0.9 1.7 0.00 0.00 0.00 72 1024.7
20260502042326 50 315 0.0 0.9 0.00 0.00 0.00 73 1024.6
20260502041322 50 315 0.9 1.7 0.00 0.00 0.00 73 1024.9
20260502040318 50 315 0.9 1.7 0.00 0.00 0.00 74 1024.9
20260502035356 50 315 0.0 0.9 0.00 0.00 0.00 74 1024.7
20260502034311 50 315 0.0 0.9 0.00 0.00 0.00 73 1024.7
20260502033328 50 315 0.0 0.9 0.00 0.00 0.00 73 1024.7
20260502032306 50 0.0 0.0 0.00 0.00 0.00 72 1024.8
20260502031304 50 0.0 0.0 0.00 0.00 0.00 72 1024.8
20260502030257 51 315 0.9 1.7 0.00 0.00 0.00 71 1024.7
20260502025248 51 315 0.9 1.7 0.00 0.00 0.00 71 1024.6
20260502024244 51 315 2.6 3.5 0.00 0.00 0.00 70 1024.9
20260502023238 51 315 1.7 2.6 0.00 0.00 0.00 71 1024.8
20260502022235 51 315 2.6 2.6 0.00 0.00 0.00 71 1024.7
20260502021232 51 315 2.6 2.6 0.00 0.00 0.00 71 1024.9
20260502020250 51 315 0.9 1.7 0.00 0.00 0.00 71 1025.0
20260502015227 52 315 1.7 2.6 0.00 0.00 0.00 70 1024.7
20260502014225 52 315 1.7 2.6 0.00 0.00 0.00 69 1024.8
20260502013220 52 315 1.7 2.6 0.00 0.00 0.00 70 1024.8
20260502012238 52 315 0.9 1.7 0.00 0.00 0.00 70 1024.9
20260502011215 52 315 0.9 2.6 0.00 0.00 0.00 69 1024.6
20260502010208 52 315 1.7 2.6 0.00 0.00 0.00 70 1024.8
20260502005219 52 292 1.7 2.6 0.00 0.00 0.00 70 1024.8
20260502004156 52 315 1.7 1.7 0.00 0.00 0.00 69 1025.0
20260502003155 52 292 0.0 0.9 0.00 0.00 0.00 70 1024.9
20260502002148 53 292 0.9 1.7 0.00 0.00 0.00 69 1024.9
20260502001145 53 292 0.0 0.9 0.00 0.00 0.00 68 1024.9
20260502000155 53 292 0.0 0.9 0.00 0.00 0.00 68 1025.0
20260501235155 53 292 0.9 1.7 0.00 0.00 0.00 68 1025.2
20260501234122 53 292 0.9 1.7 0.00 0.00 0.00 68 1024.7
20260501233121 53 292 0.9 1.7 0.00 0.00 0.00 67 1025.0
20260501232114 53 292 0.0 0.9 0.00 0.00 0.00 66 1024.9
20260501231110 54 292 0.9 1.7 0.00 0.00 0.00 65 1024.9
20260501230108 54 292 0.0 0.9 0.00 0.00 0.00 65 1025.0
20260501225103 54 292 0.0 0.9 0.00 0.00 0.00 64 1024.8
20260501224124 54 0.0 0.0 0.00 0.00 0.00 65 1024.9
20260501223059 54 0.0 0.0 0.00 0.00 0.00 66 1024.9
20260501222054 54 292 0.9 1.7 0.00 0.00 0.00 64 1024.9
20260501221051 55 292 0.9 1.7 0.00 0.00 0.00 64 1024.6
20260501220048 55 292 0.9 1.7 0.00 0.00 0.00 64 1024.6
20260501215038 55 0.0 0.0 0.00 0.00 0.00 63 1024.7
20260501214034 55 0.0 0.0 0.00 0.00 0.00 63 1024.7
20260501213052 56 0.0 0.0 0.00 0.00 0.00 60 1024.6
20260501212027 56 292 0.0 0.9 0.00 0.00 0.00 61 1024.7
20260501211023 56 0.0 0.9 0.00 0.00 0.00 61 1024.6